User: anonymous   Login
Location: Theydon Bois
(51.6750°N, 0.1050°E)
Time: 12:53:11
(UTC+01:00)
Language:

Cosmos 1758 - Orbit

View from above orbital plane
View from above orbital plane
View from above satellite
View from above satellite

Ground track
Ground track

The orbit data is extracted from the following two-line orbital elements,

1 16791U 86046A   18199.90613381 -.00000131 +00000-0 -11341-4 0  9998
2 16791 082.4697 005.4535 0016881 172.9267 187.2201 15.04718024745056
Epoch (UTC): 18 July 2018 21:44:49
Eccentricity: 0.0016881
inclination: 82.4697°
perigee height: 540 km
apogee height: 564 km
right ascension of ascending node: 5.4535°
argument of perigee: 172.9267°
revolutions per day: 15.04718024
mean anomaly at epoch: 187.2201°
orbit number at epoch: 74505

The dashed part of the orbit path shows where the satellite is in the earth's shadow,  

DLR